FW1746 Weather Reports


time (UTC)temp
C
wind
direction
speed
KPH
gust
KPH
rain 1hr
cm
rain 24hr
cm
rain mn
cm
humidity
%
barometer
mb
20260502231526 9 198 0.0 1.6 0.00 0.10 0.10 94 1009.7
20260502230024 10 178 0.0 4.8 0.00 0.10 0.10 94 1010.0
20260502224522 10 184 0.0 4.8 0.00 0.10 0.10 95 1009.9
20260502223021 10 186 1.6 4.8 0.00 0.10 0.10 95 1009.8
20260502221520 10 186 0.0 4.8 0.00 0.10 0.10 94 1009.9
20260502220024 10 180 0.0 3.2 0.00 0.10 0.10 94 1009.9
20260502214516 10 178 0.0 1.6 0.00 0.10 0.10 94 1009.9
20260502213026 10 180 0.0 3.2 0.00 0.10 0.10 94 1010.0
20260502211512 10 165 0.0 3.2 0.00 0.10 0.10 94 1010.1
20260502210011 10 165 0.0 3.2 0.00 0.10 0.10 94 1010.5
20260502204515 10 188 0.0 3.2 0.00 0.10 0.10 94 1010.5
20260502203013 10 159 0.0 4.8 0.00 0.10 0.10 94 1010.5
20260502201513 10 196 0.0 4.8 0.00 0.10 0.10 94 1010.5
20260502200012 10 207 0.0 3.2 0.00 0.10 0.10 94 1010.4
20260502194509 10 199 0.0 8.0 0.00 0.10 0.10 93 1010.3
20260502193008 10 202 0.0 8.0 0.00 0.10 0.10 94 1010.3
20260502191507 10 212 1.6 8.0 0.00 0.10 0.10 93 1010.2
20260502190005 10 159 3.2 9.7 0.00 0.10 0.10 93 1010.3
20260502184506 10 169 3.2 12.9 0.00 0.10 0.10 93 1010.2
20260502183004 10 167 1.6 8.0 0.00 0.10 0.10 93 1010.1
20260502181605 10 169 0.0 8.0 0.00 0.10 0.10 93 1010.2
20260502180114 10 192 0.0 4.8 0.00 0.10 0.10 93 1010.3
20260502163009 11 138 1.6 4.8 0.10 0.10 0.10 87 1010.3
20260502161504 11 195 0.0 3.2 0.08 0.08 0.08 87 1010.7
20260502151528 14 175 8.0 16.1 0.00 0.00 0.00 70 1011.3
20260502123010 14 161 6.4 12.9 0.00 0.00 0.00 75 1012.4
20260502121509 15 151 8.0 12.9 0.00 0.00 0.00 76 1012.6
20260502114555 15 168 8.0 12.9 0.00 0.00 0.00 77 1012.7
20260502113054 14 135 8.0 14.5 0.00 0.00 0.00 77 1012.7
20260502110047 13 148 6.4 11.3 0.00 0.00 0.00 79 1012.9
20260502104545 13 173 4.8 9.7 0.00 0.00 0.00 81 1013.1
20260502103044 12 140 4.8 11.3 0.00 0.00 0.00 80 1013.3
20260502101546 12 142 3.2 8.0 0.00 0.00 0.00 79 1013.4
20260502070050 9 257 1.6 3.2 0.00 0.00 0.00 82 1014.6
20260502064546 8 260 0.0 3.2 0.00 0.00 0.00 85 1014.6
20260502063042 7 257 0.0 0.0 0.00 0.00 0.00 88 1014.7
20260502061534 7 279 0.0 1.6 0.00 0.00 0.00 92 1014.7
20260502060033 6 259 0.0 0.0 0.00 0.00 0.00 94 1014.9
20260502054532 6 258 0.0 0.0 0.00 0.00 0.00 93 1015.0
20260502053031 5 259 0.0 1.6 0.00 0.00 0.00 94 1015.1
20260502051530 5 257 0.0 3.2 0.00 0.00 0.00 94 1015.1
20260502050033 5 259 0.0 4.8 0.00 0.00 0.00 94 1015.1
20260502044526 4 257 1.6 4.8 0.00 0.00 0.00 94 1015.3
20260502043025 4 258 0.0 0.0 0.00 0.00 0.00 93 1015.4
20260502041533 4 279 3.2 6.4 0.00 0.00 0.00 93 1015.5
20260502040027 4 275 3.2 8.0 0.00 0.00 0.00 94 1015.8
20260502034535 4 267 4.8 9.7 0.00 0.00 0.00 94 1016.0
20260502033023 4 263 3.2 4.8 0.00 0.00 0.00 93 1016.3
20260502031514 4 242 3.2 9.7 0.00 0.00 0.00 93 1016.6
20260502030013 4 288 3.2 6.4 0.00 0.00 0.00 93 1016.7
20260502024515 4 267 3.2 6.4 0.00 0.00 0.00 93 1017.0
20260502023008 4 265 4.8 11.3 0.00 0.00 0.00 92 1017.2
20260502021510 5 228 3.2 6.4 0.00 0.00 0.00 92 1017.5
20260502020008 5 228 3.2 4.8 0.00 0.00 0.00 92 1017.8
20260502014519 5 229 0.0 1.6 0.00 0.00 0.00 91 1018.1
20260502013002 5 230 0.0 3.2 0.00 0.00 0.00 91 1018.0
20260502011505 5 229 0.0 3.2 0.00 0.00 0.00 90 1018.2
20260502010002 5 229 1.6 3.2 0.00 0.00 0.00 90 1018.3
20260502004605 5 248 0.0 4.8 0.00 0.00 0.00 90 1018.5
20260502003055 6 246 0.0 4.8 0.00 0.00 0.00 91 1018.8
20260502001552 6 227 4.8 6.4 0.00 0.00 0.00 90 1019.0
20260502000059 6 225 3.2 6.4 0.00 0.00 0.00 91 1019.3
20260501234549 6 202 3.2 6.4 0.00 0.00 0.00 90 1019.4
20260501233043 6 185 0.0 0.0 0.00 0.00 0.00 90 1019.7